This is the latest recevied weather packets stored in our database for station/object KE8WAY. If no packets are shown the sender has not sent any weather packets the latest 10 day(s).
| Time | Temp. | Humidity | Pressure | Rain* | Wind** | Luminosity | Snow |
|---|---|---|---|---|---|---|---|
| 1777655948 | 7.22° C | 79% | 1012.9 hPa | 0 mm | - | 79 W/m² | - |
| 1777655645 | 7.22° C | 83% | 1013.1 hPa | 0 mm | - | 161 W/m² | - |
| 1777655342 | 7.22° C | 80% | 1013.2 hPa | 0 mm | - | 246 W/m² | - |
| 1777655039 | 6.67° C | 83% | 1013.1 hPa | 0 mm | - | 216 W/m² | - |
| 1777654736 | 6.67° C | 84% | 1013 hPa | 0 mm | - | 111 W/m² | - |
| 1777654434 | 6.67° C | 84% | 1012.9 hPa | 0 mm | - | 138 W/m² | - |
| 1777654131 | 6.67° C | 85% | 1013 hPa | 0 mm | - | 126 W/m² | - |
| 1777653829 | 6.67° C | 83% | 1013.1 hPa | 0 mm | - | 122 W/m² | - |
| 1777653525 | 6.67° C | 85% | 1012.8 hPa | 0 mm | - | 121 W/m² | - |
| 1777653221 | 6.67° C | 85% | 1012.9 hPa | 0 mm | - | 126 W/m² | - |
| 1777652919 | 6.67° C | 84% | 1012.8 hPa | 0 mm | - | 85 W/m² | - |
| 1777652615 | 6.11° C | 85% | 1012.7 hPa | 1.78 mm | - | 117 W/m² | - |
| 1777652312 | 6.11° C | 85% | 1012.8 hPa | 1.78 mm | - | 90 W/m² | - |
| 1777652009 | 6.11° C | 86% | 1012.6 hPa | 1.78 mm | - | 60 W/m² | - |
| 1777651705 | 6.11° C | 87% | 1012.8 hPa | 0 mm | - | 72 W/m² | - |
| 1777651402 | 6.67° C | 88% | 1012.8 hPa | 1.27 mm | - | 98 W/m² | - |
| 1777651100 | 6.11° C | 88% | 1012.9 hPa | 1.27 mm | - | 99 W/m² | - |
| 1777650796 | 6.11° C | 86% | 1012.6 hPa | 1.27 mm | - | 113 W/m² | - |
| 1777650493 | 6.67° C | 84% | 1012.8 hPa | 0 mm | - | 78 W/m² | - |
| 1777650190 | 6.67° C | 84% | 1012.5 hPa | 0 mm | - | 85 W/m² | - |
| 1777649888 | 6.67° C | 85% | 1012.7 hPa | 0 mm | - | 98 W/m² | - |
| 1777649585 | 6.67° C | 84% | 1012.5 hPa | 0 mm | - | 123 W/m² | - |
| 1777649281 | 6.67° C | 82% | 1012.6 hPa | 0 mm | - | 167 W/m² | - |
| 1777648978 | 6.67° C | 85% | 1012.6 hPa | 0 mm | - | 246 W/m² | - |
| 1777648676 | 6.67° C | 83% | 1012.5 hPa | 0 mm | - | 184 W/m² | - |
* Rain latest hour (hover to see other rain measurements)
** Current wind speed in m/s (hover to see current wind gust speed)